Location: The Saddle
(36.8333°N, 80.3417°W)
Time: 14:43:05
(UTC-04:00)

Altair - Pass Details

Date: 20 July 2024
Orbit: 1502 x 1682 km, 47.2° (Epoch: 19 July)

Event Time Altitude Azimuth Distance (km) Brightness Sun altitude
Rises 23:30:44 0° 296° (WNW) 4,656 10.9 -26.5°
Reaches altitude 10° 23:33:55 10° 302° (WNW) 3,663 10.2 -26.8°
Maximum altitude 23:42:51 53° 18° (NNE) 1,799 8.0 -27.7°
Enters shadow 23:50:16 16° 90° (E) 3,214 8.9 -28.3°
